"Pseudo-MPEC" for P11JDwD

Created 2023 Sep 19 11:22:30 UT using Find_Orb

Click here for an explanation of pseudo-MPECs

 
 Astrometry: 
     P11JDwD  C2023 09 11Z6*)#a;,sX@9-Qm7-\a=Z7gMq#q7/wmj3wM69hvf=Z.HMEVc`sCwF51
     P11JDwD  C2023 09 11:KnB_M?,qR^xBwA?=A\wO*%N:h4gfe(74FYsMSZE+wNom2`)digiF51
     P11JDwD  C2023 09 11(W,oCrQ4,wHAstrometryY%!9$`W!hL@59Z#I`lgh#N7!Fi5R@]eF51
     P11JDwD  C2023 09 11y8%#y6%A=yWVYOY(5%JW(xI)xls*20ofINieHC(GT^Z*q=svgQ$?F51
     P11JDwD* C2023 09 15bql[!XkJDnyhJd6HF8^r`U5Z+Veredacted;cueKl1`GCRrBq0K5F51
     P11JDwD  C2023 09 15s58OM16\JgW5P,TVS?HL^IwHtfIG!;vNf0'jQ8%(D3^wRTRo#$-LF51
     P11JDwD  C2023 09 15VVBY!DtQL!7\click.hthJr!bpT=#@Z0F6fYE!WtR)uJt1Yc+!gWF51
     P11JDwD  C2023 09 15P'0G)3gdxgTdg3dhD8tNgEHxXe]YS:5]BF*K3Ki18xPYen!0,u^sF51
     P11JDwD KC2023 09 16.43245501 54 45.490-10 12 41.10   ~9GB7 21.37GVNEOCPI52
     P11JDwD KC2023 09 16.43641101 54 44.990-10 12 28.90   ~9GB7 20.98GVNEOCPI52
     P11JDwD KC2023 09 16.43950301 54 44.710-10 12 19.90   ~9GB7 21.47GVNEOCPI52
     P11JDwD KC2023 09 16.44260301 54 44.360-10 12 09.50   ~9GB7 21.22GVNEOCPI52
     P11JDwD  C2023 09 17@`qherexT13HGpjmTpZ%9Fq7vP#DQ3PK#GetyE(1X*X(u%for\k_F51
     P11JDwD  C2023 09 17;*+fv[py%!f/(72O`NHB9ZMqcHPym6oQu[M1RjSl[]fd:Mmo,vvXF51
     P11JDwD KC2023 09 18.36222001 51 30.265-08 28 49.91   ~9I97 21.13GVNEOCPI52
     P11JDwD KC2023 09 18.36417001 51 30.060-08 28 43.36   ~9I97 21.16GVNEOCPI52
     P11JDwD KC2023 09 18.36610901 51 29.797-08 28 36.52   ~9I97 22.18GVNEOCPI52
     P11JDwD KC2023 09 18.36805501 51 29.560-08 28 30.04   ~9I97 21.27GVNEOCPI52
     P11JDwD 1C2023 09 19.08866 01 50 06.18 -07 46 11.4    ~9J7b 21.5 VXNEOCP033
     P11JDwD 1C2023 09 19.09155 01 50 05.90 -07 46 01.4    ~9J7b 21.0 VXNEOCP033
     P11JDwD KC2023 09 199D.9kxbwNC$9O+))Q]5J]OQPk6AwH[uWNg/6explanation]3BvcH21
     P11JDwD KC2023 09 19'ZlY=dHAGwrQBsB=JjxE!f1p*n*MEmT%9gv#5%f60bcR3CXYD_y/H21

Station data:
(033) Karl Schwarzschild Observatory, Tautenburg  (N50.980137 E11.711240)
   Germany.  Observer B. Stecklum. 1.34-m f/3 Schmidt + CCD.
(F51) Pan-STARRS 1, Haleakala  (N20.707234 W156.255910)  US/Hawaii.
   Observers J. Bulger, T. Lowe, A. Schultz, M. Willman. Measurers K.
   Chambers, S. Chastel, T. de Boer, L. Denneau, J. Fairlamb, H. Flewelling,
   M. Huber, C.-C. Lin, E. Magnier, Y. Ramanjooloo, R. Wainscoat, R. Weryk.
   1.8-m Ritchey-Chrétien + CCD.
(H21) Astronomical Research Observatory, Westfield  (N39.483054 W87.968270)
   US/Illinois.  Observer R. Holmes. Measurers S. Foglia, L. Buzzi, T.
   Linder, R. Holmes. 0.76-m f/3.0 astrograph + CCD0.81-m f/4.0 astrograph +
   CCD0.61-m f/4.5 astrograph + CCD0.40-m f/5.32 astrograph + CCD.
(I52) Steward Observatory, Mt. Lemmon Station  (N32.442544 W110.788920)
   US/Arizona.  Observers T. A. Pruyne, B. M. Africano, E. J. Christensen, G.
   A. Farneth, D. C. Fuls, A. R. Gibbs, A. D. Grauer, H. Gröller, J. A.
   Johnson, R. A. Kowalski, S. M. Larson, G. J. Leonard, D. Rankin, R. L.
   Seaman, F. C. Shelly, K. W. Wierzchoś. 1.0-m prime focus + CCD.

Orbital elements:  P11JDwD
   Perihelion 2023 Dec 3.80619 +/- 0.046 TT = 19:20:55 (JD 2460282.30619)
Epoch 2023 Sep 19.0 TT = JDT 2460206.5   Earth MOID: 0.1653   Ma: 0.0296
M 324.75036287 +/- 0.10             (J2000 ecliptic)             AutoNEOCP
n   0.46499680 +/- 0.00105          Peri.   67.58843 +/- 0.042
a   1.65007140 +/- 0.00249          Node     8.43623 +/- 0.0023
e   0.4028714 +/- 0.000834          Incl.   29.35939 +/- 0.035
P   2.12/774.18d           H 22.49  G  0.15   U  8.1
q 0.98530475 +/- 0.00013    Q 2.31483806 +/- 0.00486
From 22 observations 2023 Sept. 11-19; mean residual 0".30
Residuals in arcseconds: 
230911 F51  .08+  .11+    230916 I52  .61+  .30-    230918 I52  .01-  .03+    
230911 F51  .13-  .09+    230916 I52  .80-  .09-    230918 I52  .01-  .19-    
230911 F51  .02-  .11-    230916 I52  .27-  .46-    230919 033  .30-  .21+    
230911 F51  .06+  .09-    230916 I52  .76-  .54+    230919 033  .98+  .26-    
230915 F51  .19+  .01+    230917 F51  .09+  .17-    230919 H21  .33-  .11+    
230915 F51  .06+  .11+    230917 F51  .13-  .19+    230919 H21  .22-  .05+    
230915 F51  .12-  .05+    230918 I52  .08-  .01+    
230915 F51  .04+  .13-    230918 I52  .40+  .14-    

Ephemerides (geocentric):
Date (UTC) HH   RA             Dec           delta  r     elong  mag " sig PA
---- --------  ------------   ------------  ------ ------ -----  --- --------
2023 09 19 11  01 49 21.876   -07 23 10.75  .28414 1.2558 148.5 21.4 .164  73
2023 09 19 12  01 49 16.752   -07 20 35.87  .28375 1.2555 148.6 21.4 .168  72
2023 09 19 13  01 49 11.609   -07 18 00.55  .28337 1.2553 148.6 21.4 .173  72
2023 09 19 14  01 49 06.447   -07 15 24.78  .28298 1.2551 148.7 21.4 .177  72
2023 09 19 15  01 49 01.265   -07 12 48.56  .28259 1.2548 148.8 21.4 .182  71
2023 09 19 16  01 48 56.064   -07 10 11.90  .28220 1.2546 148.8 21.4 .187  71
2023 09 19 17  01 48 50.843   -07 07 34.80  .28182 1.2544 148.9 21.4 .192  71
2023 09 19 18  01 48 45.603   -07 04 57.24  .28143 1.2541 148.9 21.4 .197  70
2023 09 19 19  01 48 40.343   -07 02 19.22  .28105 1.2539 149.0 21.4 .201  70
2023 09 19 20  01 48 35.063   -06 59 40.76  .28066 1.2536 149.1 21.4 .206  70
2023 09 19 21  01 48 29.764   -06 57 01.84  .28028 1.2534 149.1 21.3 .211  70
2023 09 19 22  01 48 24.445   -06 54 22.47  .27989 1.2532 149.2 21.3 .216  69
2023 09 19 23  01 48 19.107   -06 51 42.64  .27951 1.2529 149.2 21.3 .221  69
2023 09 20 00  01 48 13.748   -06 49 02.35  .27912 1.2527 149.3 21.3 .227  69
2023 09 20 01  01 48 08.370   -06 46 21.59  .27874 1.2525 149.4 21.3 .232  68
2023 09 20 02  01 48 02.972   -06 43 40.38  .27836 1.2522 149.4 21.3 .237  68
2023 09 20 03  01 47 57.554   -06 40 58.71  .27797 1.2520 149.5 21.3 .242  68
2023 09 20 04  01 47 52.115   -06 38 16.57  .27759 1.2517 149.6 21.3 .248  68
2023 09 20 05  01 47 46.657   -06 35 33.96  .27721 1.2515 149.6 21.3 .253  67
2023 09 20 06  01 47 41.178   -06 32 50.89  .27683 1.2513 149.7 21.3 .258  67
2023 09 20 07  01 47 35.680   -06 30 07.35  .27645 1.2510 149.7 21.3 .264  67
2023 09 20 08  01 47 30.161   -06 27 23.34  .27607 1.2508 149.8 21.3 .269  67
2023 09 20 09  01 47 24.621   -06 24 38.85  .27569 1.2506 149.9 21.3 .275  66
2023 09 20 10  01 47 19.062   -06 21 53.90  .27531 1.2503 149.9 21.3 .280  66
2023 09 20 11  01 47 13.482   -06 19 08.47  .27493 1.2501 150.0 21.3 .286  66
2023 09 20 12  01 47 07.881   -06 16 22.56  .27455 1.2498 150.1 21.3 .292  66
2023 09 20 13  01 47 02.260   -06 13 36.18  .27417 1.2496 150.1 21.3 .298  65
2023 09 20 14  01 46 56.618   -06 10 49.31  .27379 1.2494 150.2 21.3 .303  65
2023 09 20 15  01 46 50.956   -06 08 01.97  .27341 1.2491 150.3 21.3 .309  65
2023 09 20 16  01 46 45.273   -06 05 14.14  .27303 1.2489 150.3 21.3 .315  65
2023 09 20 17  01 46 39.569   -06 02 25.84  .27265 1.2487 150.4 21.3 .321  64
2023 09 20 18  01 46 33.844   -05 59 37.04  .27228 1.2484 150.4 21.2 .327  64
2023 09 20 19  01 46 28.098   -05 56 47.76  .27190 1.2482 150.5 21.2 .333  64
2023 09 20 20  01 46 22.332   -05 53 57.99  .27152 1.2480 150.6 21.2 .339  64
2023 09 20 21  01 46 16.544   -05 51 07.74  .27115 1.2477 150.6 21.2 .345  64
2023 09 20 22  01 46 10.736   -05 48 16.99  .27077 1.2475 150.7 21.2 .352  63
2023 09 20 23  01 46 04.906   -05 45 25.75  .27040 1.2472 150.8 21.2 .358  63
2023 09 21 00  01 45 59.055   -05 42 34.02  .27002 1.2470 150.8 21.2 .364  63
2023 09 21 01  01 45 53.183   -05 39 41.79  .26965 1.2468 150.9 21.2 .371  63
2023 09 21 02  01 45 47.290   -05 36 49.06  .26927 1.2465 151.0 21.2 .377  63
2023 09 21 03  01 45 41.375   -05 33 55.84  .26890 1.2463 151.0 21.2 .383  62
2023 09 21 04  01 45 35.439   -05 31 02.12  .26852 1.2461 151.1 21.2 .390  62
2023 09 21 05  01 45 29.482   -05 28 07.89  .26815 1.2458 151.2 21.2 .397  62
2023 09 21 06  01 45 23.502   -05 25 13.16  .26778 1.2456 151.2 21.2 .403  62
2023 09 21 07  01 45 17.502   -05 22 17.93  .26741 1.2454 151.3 21.2 .410  62
2023 09 21 08  01 45 11.479   -05 19 22.20  .26703 1.2451 151.4 21.2 .417  61
2023 09 21 09  01 45 05.435   -05 16 25.95  .26666 1.2449 151.4 21.2 .423  61
2023 09 21 10  01 44 59.370   -05 13 29.20  .26629 1.2446 151.5 21.2 .430  61